Regional Weather Roundup
Issued by NWS

Home | Current Version | Previous Version | Text Only | Print | Product List | Glossary On
Versions: 1 2 3 4 5 6 7 8 9 10 11 12 13 14 15 16 17 18 19 20 21 22 23 24 25 26 27 28 29 30 31 32 33 34 35 36 37 38 39 40 41 42 43 44 45 46 47 48 49 50
000
ASCA42 TJSJ 201610
RWRPR
PUERTO RICO/U.S. VIRGIN ISLANDS HOURLY WEATHER ROUNDUP
NATIONAL WEATHER SERVICE SAN JUAN PR
1200 PM AST SUN AUG 20 2017

PRZ001>002-007>008-010-201700-
PUERTO RICO

CITY           SKY/WX    TMP DP  RH WIND       PRES   REMARKS
SAN JUAN LMM   RAIN      77  75  94 CALM      29.98S FOG
AGUADILLA      MOSUNNY   84  77  79 E7        29.98S HX  94
CEIBA          PTSUNNY   81  79  94 E12       30.00S
$$

VIZ001>002-201700-
U.S. VIRGIN ISLANDS

CITY           SKY/WX    TMP DP  RH WIND       PRES   REMARKS
CHARLOTTE AMA  MOSUNNY   88  77  70 SE21G29   29.97F HX 100
CHRISTIANSTED  MOSUNNY   88  79  74 E13       29.99S HX 102
$$

HOURLY WEATHER ROUNDUP FOR THE NEWS MEDIA

CITY           SKY/WX    TMP DP  RH WIND       PRES   REMARKS
ORLANDO        MOSUNNY   88  75  65 NE6       30.06S HX  97
NEW YORK       MOSUNNY   81  59  47 W15G23    30.06S
NEWARK         PTSUNNY   80  59  48 NW13      30.06S
CHICAGO        PTSUNNY   82  64  54 S6        30.05S
HARTFORD       SUNNY     82  61  48 W8G16     29.95S
BOSTON         MOSUNNY   82  61  48 NW10G18   29.95R
DALLAS         MOSUNNY   90  67  46 SW5       30.03R HX  93
PHILADELPHIA   MOSUNNY   80  59  48 N6        30.11R
LOS ANGELES    CLOUDY    69  61  75 SW5       29.95S
WASHINGTON DC  MOSUNNY   79  60  52 N7        30.15S


USA.gov is the U.S. government's official web portal to all federal, state and local government web resources and services.